Wind_Speed
22 22 22 22 22 23 24 25 26 27 28 29 30 31 32 32 32 33 33 34 34 33 33 32 31 30 30 31 31 28 30 31 30
22 22 23 23 24 25 26 29 31 32 32 33 33 34 35 36 36 36 37 37 38 38 38 37 35 35 35 33 33 34 32 34 33
25 25 25 26 27 29 32 34 36 36 37 36 36 36 37 37 36 35 35 35 35 36 36 37 36 36 36 36 35 34 36 36 35
26 26 26 27 30 32 35 38 40 42 41 40 40 39 39 39 38 37 36 36 35 36 36 36 36 36 36 36 35 35 35 37 37
27 27 29 30 33 35 38 40 43 44 44 44 44 42 41 40 39 38 37 35 35 36 37 37 37 38 37 35 34 34 33 35 35
28 29 30 33 34 37 41 43 44 45 45 46 47 45 44 41 39 38 37 36 36 37 37 37 37 38 35 34 35 36 37 38 38
30 32 33 34 37 39 42 45 44 42 43 44 44 42 41 40 38 36 36 36 36 37 37 37 37 35 34 36 38 38 39 40 42
31 32 34 36 39 40 43 44 39 35 34 35 35 34 33 32 33 32 33 34 36 37 36 35 33 35 37 38 37 38 39 40 41
33 35 37 39 40 40 41 36 29 27 26 27 28 27 26 27 29 29 31 33 35 35 33 32 34 36 37 39 41 43 43 42 45
35 38 40 41 39 38 36 29 26 28 29 29 29 28 27 27 28 28 30 33 33 30 29 32 34 36 39 41 43 45 46 49 50
38 40 40 39 38 36 35 29 26 28 29 28 27 25 25 25 26 28 30 30 29 26 29 32 34 36 39 43 45 49 53 55 60
40 38 35 36 36 34 35 32 29 28 28 29 27 25 26 26 27 27 27 27 23 26 30 32 34 36 40 44 49 52 54 54 60
37 33 35 35 33 33 33 30 27 27 27 28 27 26 25 25 24 23 24 22 23 26 30 32 32 35 39 41 47 40 32 22 20
34 33 32 33 31 29 29 27 23 22 22 23 21 23 23 23 23 24 24 22 24 26 30 31 31 34 35 34 28 21 28 15 14
33 33 32 31 30 28 26 24 22 18 17 19 21 21 22 23 24 26 26 25 24 26 29 29 28 31 29 25 22 24 13 8 14
32 32 31 29 29 27 25 23 22 20 18 20 21 22 23 24 25 26 27 27 25 26 28 27 26 26 25 18 17 20 12 9 8
32 32 31 28 28 28 27 24 23 22 21 22 22 23 25 26 27 28 28 27 24 25 27 27 25 23 21 13 9 11 22 18 12
32 32 29 26 26 26 26 25 24 24 24 24 24 24 25 25 27 28 28 27 25 24 26 26 24 21 18 17 15 12 15 22 19
32 32 30 27 27 27 27 27 26 25 25 25 25 26 26 27 26 27 28 27 24 24 25 24 24 22 16 15 14 17 19 19 16
33 33 31 30 29 29 30 30 30 30 29 28 28 29 29 29 29 29 29 29 27 25 25 24 23 22 21 14 13 12 16 18 19
Wind_Direction
319 312 305 300 299 300 301 298 295 292 290 289 288 288 288 287 287 287 286 286 285 285 285 284 283 282 282 284 288 289 274 265 260
316 314 310 304 300 298 297 296 295 294 293 291 290 289 289 288 286 285 285 284 284 284 283 282 281 280 280 278 279 284 280 265 259
319 318 316 312 310 309 306 303 300 296 293 290 288 288 286 284 284 284 284 285 285 285 284 281 279 277 277 275 274 277 277 266 257
317 317 316 315 314 312 309 306 303 299 293 287 283 280 280 280 280 279 280 281 285 286 285 284 280 277 276 275 273 272 267 262 257
315 316 316 317 318 318 315 309 303 297 290 285 281 277 275 276 278 281 283 284 285 286 285 284 281 280 278 274 272 269 265 260 260
314 316 318 317 318 319 317 313 307 299 290 283 280 279 279 279 281 283 285 286 287 286 285 284 281 278 275 275 272 270 267 263 260
313 318 319 319 320 318 318 314 310 304 293 285 284 283 283 283 286 288 289 290 290 289 288 286 282 279 280 278 275 271 267 262 256
314 317 317 318 318 316 318 316 316 314 306 298 294 291 288 289 289 289 289 291 292 292 290 288 284 283 284 282 281 277 272 267 258
314 315 315 316 314 315 316 319 328 327 316 305 298 293 290 285 285 286 288 290 293 291 290 286 287 290 289 290 286 281 278 269 260
314 314 313 312 311 313 316 317 320 318 313 308 302 296 292 290 290 292 294 296 293 291 287 288 294 297 295 292 290 289 285 277 265
312 313 313 314 315 315 311 309 311 314 317 315 310 305 301 300 298 298 298 296 294 290 292 300 303 301 299 300 301 300 290 278 268
311 315 320 319 316 313 317 302 302 308 314 314 311 308 307 305 304 302 300 300 292 295 301 308 307 306 307 311 312 303 290 279 267
310 313 317 318 314 312 318 314 302 304 308 309 309 311 311 310 307 305 306 300 299 301 308 309 309 311 315 321 313 300 290 265 286
308 312 318 319 318 313 318 321 318 317 315 316 320 320 318 316 310 310 310 307 305 305 308 311 312 314 322 325 335 295 302 294 285
311 314 319 318 321 316 315 321 322 326 326 324 322 324 322 320 316 315 312 309 305 305 308 311 313 319 327 329 354 345 334 330 302
310 314 317 317 319 319 313 315 317 315 314 318 321 321 318 316 313 315 314 310 306 305 306 312 312 322 330 331 360 360 6 271 304
311 314 317 318 321 320 317 314 313 312 310 312 312 312 312 311 312 312 314 311 304 305 308 313 313 323 328 307 345 350 351 303 267
310 312 313 315 318 319 317 316 315 314 313 313 312 311 310 309 309 311 314 314 307 306 308 311 313 318 327 322 300 300 308 322 330
306 307 309 308 311 313 313 313 314 313 312 312 315 315 315 314 312 312 309 310 303 304 308 309 311 311 320 314 317 312 308 312 315
302 303 304 305 306 307 307 308 306 307 307 310 312 313 313 313 312 311 309 306 303 297 300 304 306 309 307 310 308 298 309 304 308
Height
5842 5841 5840 5838 5836 5835 5834 5832 5830 5829 5827 5826 5824 5823 5822 5821 5820 5818 5817 5815 5815 5814 5813 5813 5813 5813 5812 5812 5811 5811 5812 5812 5812
5839 5838 5836 5834 5833 5831 5830 5828 5826 5824 5823 5821 5819 5817 5816 5814 5813 5812 5811 5809 5808 5807 5806 5805 5805 5805 5805 5805 5805 5804 5804 5805 5807
5837 5835 5833 5831 5829 5827 5825 5823 5821 5819 5817 5815 5813 5811 5809 5807 5806 5805 5804 5803 5801 5800 5798 5797 5796 5796 5796 5796 5796 5796 5796 5798 5800
5834 5832 5829 5827 5825 5822 5820 5817 5814 5812 5809 5807 5805 5803 5801 5799 5798 5797 5796 5795 5794 5793 5791 5790 5788 5787 5788 5788 5788 5787 5789 5790 5791
5830 5828 5825 5822 5819 5816 5813 5809 5805 5802 5800 5798 5795 5793 5792 5791 5790 5789 5788 5788 5787 5785 5784 5783 5781 5780 5779 5780 5780 5780 5781 5782 5784
5826 5823 5820 5817 5813 5810 5806 5802 5797 5793 5790 5787 5785 5784 5783 5782 5782 5781 5780 5780 5779 5778 5777 5775 5774 5772 5772 5772 5772 5772 5773 5774 5776
5821 5818 5814 5811 5807 5803 5798 5793 5789 5784 5780 5777 5775 5775 5775 5774 5774 5775 5774 5773 5772 5770 5769 5767 5766 5765 5765 5764 5764 5764 5764 5764 5765
5816 5812 5809 5805 5800 5795 5790 5785 5779 5775 5771 5768 5767 5767 5767 5766 5767 5766 5766 5765 5763 5762 5760 5759 5759 5758 5756 5755 5754 5753 5753 5753 5754
5811 5806 5802 5798 5793 5788 5783 5778 5773 5770 5767 5764 5761 5760 5760 5759 5760 5759 5758 5757 5756 5754 5753 5752 5752 5749 5747 5744 5743 5742 5740 5741 5741
5804 5800 5796 5791 5786 5782 5778 5773 5770 5766 5763 5760 5757 5756 5754 5754 5754 5753 5752 5751 5749 5747 5747 5747 5744 5741 5738 5735 5732 5729 5727 5726 5727
5798 5794 5789 5785 5781 5777 5773 5770 5766 5762 5759 5756 5754 5751 5750 5749 5748 5747 5746 5744 5743 5742 5742 5739 5737 5733 5728 5723 5719 5715 5711 5706 5704
5793 5787 5783 5779 5775 5771 5767 5764 5762 5758 5755 5753 5750 5747 5746 5744 5743 5742 5740 5739 5738 5737 5735 5733 5729 5725 5719 5713 5708 5698 5687 5680 5677
5787 5782 5778 5774 5770 5767 5763 5759 5756 5754 5751 5749 5747 5744 5742 5740 5739 5737 5735 5734 5733 5731 5729 5727 5723 5718 5712 5705 5695 5682 5673 5667 5664
5782 5778 5773 5769 5765 5762 5759 5755 5751 5749 5747 5745 5743 5741 5739 5737 5736 5734 5731 5730 5728 5726 5724 5721 5717 5712 5706 5698 5687 5681 5670 5667 5661
5777 5773 5769 5765 5761 5757 5755 5752 5749 5746 5744 5743 5740 5738 5736 5734 5733 5731 5728 5726 5724 5722 5719 5716 5712 5707 5701 5693 5684 5681 5676 5669 5662
5772 5768 5765 5761 5757 5754 5751 5748 5746 5744 5741 5739 5737 5735 5733 5731 5729 5726 5724 5722 5720 5718 5715 5711 5707 5702 5697 5691 5684 5680 5673 5669 5664
5766 5763 5760 5757 5753 5750 5747 5744 5742 5740 5738 5736 5734 5732 5730 5728 5725 5722 5720 5718 5716 5714 5711 5708 5704 5699 5695 5690 5684 5680 5677 5670 5667
5761 5758 5755 5752 5749 5746 5743 5741 5739 5736 5734 5732 5730 5728 5726 5723 5721 5718 5716 5713 5712 5709 5707 5704 5701 5697 5693 5688 5685 5680 5676 5672 5667
5755 5753 5750 5747 5744 5742 5739 5737 5735 5732 5730 5727 5725 5723 5721 5719 5717 5714 5711 5709 5707 5705 5703 5700 5698 5695 5692 5689 5685 5681 5678 5675 5670
5748 5746 5744 5741 5738 5736 5734 5732 5729 5727 5725 5722 5720 5718 5716 5714 5712 5710 5708 5704 5703 5701 5699 5697 5694 5692 5689 5688 5685 5683 5679 5677 5675